FW2347 Weather Reports


Display with metric or nautical units.
time (UTC)temp
F
wind
direction
speed
MPH
gust
MPH
rain 1hr
in
rain 24hr
in
rain mn
in
humidity
%
barometer
mb
20260831171551 81 5 0.0 0.0 0.00 0.00 0.00 63 1015.8
20260831170037 81 360 0.0 0.0 0.00 0.00 0.00 62 1015.9
20260831164535 82 360 0.0 0.0 0.00 0.00 0.00 60 1015.9
20260831163014 83 360 0.0 0.0 0.00 0.00 0.00 59 1015.8
20260831161501 84 360 0.0 0.0 0.00 0.00 0.00 57 1015.8
20260831160053 85 0.0 0.0 0.00 0.00 0.00 56 1015.7
20260831154534 86 5 0.0 0.0 0.00 0.00 0.00 54 1015.7
20260831153021 86 360 0.0 0.0 0.00 0.00 0.00 53 1015.7
20260831151512 87 360 0.0 0.0 0.00 0.00 0.00 50 1015.5
20260831150013 88 360 0.0 0.0 0.00 0.00 0.00 47 1015.5
20260831144607 88 5 0.0 0.0 0.00 0.00 0.00 43 1015.4
20260831143042 89 360 0.0 0.0 0.00 0.00 0.00 38 1015.4
20260831141508 89 360 0.0 0.0 0.00 0.00 0.00 38 1015.4
20260831140005 89 360 0.0 0.0 0.00 0.00 0.00 38 1015.7
20260831134601 89 360 0.0 0.0 0.00 0.00 0.00 40 1015.9
20260831133047 88 5 0.0 0.0 0.00 0.00 0.00 39 1016.2
20260831131531 87 5 0.0 0.0 0.00 0.00 0.00 39 1016.2
20260831130022 87 360 0.0 0.0 0.00 0.00 0.00 40 1016.5
20260831124509 86 0.0 0.0 0.00 0.00 0.00 39 1016.6
20260831123104 87 360 0.0 0.0 0.00 0.00 0.00 38 1016.7
20260831121543 86 0.0 0.0 0.00 0.00 0.00 38 1016.7
20260831120027 85 0.0 0.0 0.00 0.00 0.00 39 1017.0
20260831114530 84 360 0.0 0.0 0.00 0.00 0.00 41 1017.2
20260831113016 84 360 0.0 0.0 0.00 0.00 0.00 43 1017.3
20260831111503 83 360 0.0 0.0 0.00 0.00 0.00 47 1017.4
20260831110124 83 360 0.0 0.0 0.00 0.00 0.00 49 1017.7
20260831104532 81 360 0.0 0.0 0.00 0.00 0.00 52 1017.6
20260831103015 81 360 0.0 0.0 0.00 0.00 0.00 54 1017.8
20260831101547 80 0.0 0.0 0.00 0.00 0.00 53 1017.8
20260831100030 79 5 0.0 0.0 0.00 0.00 0.00 52 1017.9
20260831094517 79 0.0 0.0 0.00 0.00 0.00 51 1018.0
20260831093006 79 5 0.0 0.0 0.00 0.00 0.00 50 1017.9
20260831091552 78 5 0.0 0.0 0.00 0.00 0.00 50 1018.0
20260831090021 77 360 0.0 0.0 0.00 0.00 0.00 49 1018.1
20260831084502 76 5 0.0 0.0 0.00 0.00 0.00 53 1017.8
20260831083100 75 360 0.0 0.0 0.00 0.00 0.00 56 1017.8
20260831081623 74 5 0.0 0.0 0.00 0.00 0.00 58 1017.6
20260831080034 71 0.0 0.0 0.00 0.00 0.00 62 1017.5
20260831074535 69 5 0.0 0.0 0.00 0.00 0.00 65 1017.4
20260831073006 68 5 0.0 0.0 0.00 0.00 0.00 67 1017.2
20260831071553 67 5 0.0 0.0 0.00 0.00 0.00 69 1017.2
20260831070038 65 0.0 0.0 0.00 0.00 0.00 72 1017.2
20260831064536 62 0.0 0.0 0.00 0.00 0.00 73 1017.2
20260831063021 59 0.0 0.0 0.00 0.00 0.00 71 1017.1
20260831061507 56 0.0 0.0 0.00 0.00 0.00 69 1016.7
20260831060115 55 0.0 0.0 0.00 0.00 0.00 69 1016.6
20260831054607 54 0.0 0.0 0.00 0.00 0.00 69 1016.6
20260831053057 54 360 0.0 0.0 0.00 0.00 0.00 70 1016.5
20260831051539 54 0.0 0.0 0.00 0.00 0.00 71 1016.3
20260831050034 54 0.0 0.0 0.00 0.00 0.00 73 1016.2
20260831044501 55 360 0.0 0.0 0.00 0.00 0.00 73 1016.0
20260831043040 56 360 0.0 0.0 0.00 0.00 0.00 74 1016.0
20260831041539 56 360 0.0 0.0 0.00 0.00 0.00 74 1016.1
20260831040012 56 0.0 0.0 0.00 0.00 0.00 74 1016.1
20260831034605 55 360 0.0 0.0 0.00 0.00 0.00 75 1016.0
20260831033003 56 5 0.0 0.0 0.00 0.00 0.00 75 1015.9
20260831031556 56 0.0 0.0 0.00 0.00 0.00 75 1016.1
20260831030058 56 0.0 0.0 0.00 0.00 0.00 75 1015.9
20260831024523 57 0.0 0.0 0.00 0.00 0.00 74 1016.0
20260831023004 58 0.0 0.0 0.00 0.00 0.00 74 1015.8
20260831021501 58 0.0 0.0 0.00 0.00 0.00 74 1015.7
20260831020054 59 360 0.0 0.0 0.00 0.00 0.00 73 1015.8
20260831014549 58 360 0.0 0.0 0.00 0.00 0.00 74 1015.8
20260831013026 59 5 0.0 0.0 0.00 0.00 0.00 72 1015.8
20260831011532 59 0.0 0.0 0.00 0.00 0.00 72 1015.8
20260831010002 59 0.0 0.0 0.00 0.00 0.00 72 1015.8
20260831004605 60 0.0 0.0 0.00 0.00 0.00 70 1015.8
20260831003049 60 0.0 0.0 0.00 0.00 0.00 70 1015.7
20260831001535 60 0.0 0.0 0.00 0.00 0.00 69 1015.7
20260831000039 61 360 0.0 0.0 0.00 0.00 0.00 69 1015.9
20260830234519 61 5 0.0 0.0 0.00 0.00 0.00 67 1015.8
20260830233004 61 5 0.0 0.0 0.00 0.00 0.00 66 1015.9
20260830231543 61 0.0 0.0 0.00 0.00 0.00 66 1015.9
20260830230037 61 0.0 0.0 0.00 0.00 0.00 64 1015.8
20260830224528 61 5 0.0 0.0 0.00 0.00 0.00 63 1015.9
20260830223004 61 360 0.0 0.0 0.00 0.00 0.00 62 1016.0
20260830221600 62 5 0.0 0.0 0.00 0.00 0.00 61 1015.9
20260830220057 63 0.0 0.0 0.00 0.00 0.00 60 1015.8
20260830214536 63 360 0.0 0.0 0.00 0.00 0.00 58 1015.6
20260830213029 64 0.0 0.0 0.00 0.00 0.00 56 1015.5
20260830211513 65 0.0 0.0 0.00 0.00 0.00 54 1015.4
20260830210005 64 0.0 0.0 0.00 0.00 0.00 56 1015.4
20260830204559 65 360 0.0 0.0 0.00 0.00 0.00 55 1015.3
20260830203042 66 5 0.0 0.0 0.00 0.00 0.00 53 1015.2
20260830201526 67 360 0.0 0.0 0.00 0.00 0.00 51 1015.0
20260830200007 69 360 0.0 0.0 0.00 0.00 0.00 50 1014.9
20260830194600 69 0.0 0.0 0.00 0.00 0.00 49 1014.7
20260830193059 72 0.0 0.0 0.00 0.00 0.00 46 1014.4
20260830191619 75 5 0.0 0.0 0.00 0.00 0.00 42 1014.3
20260830190035 77 360 0.0 0.0 0.00 0.00 0.00 40 1014.0
20260830184537 78 5 0.0 0.0 0.00 0.00 0.00 40 1013.9
20260830183030 79 360 0.0 0.0 0.00 0.00 0.00 40 1013.6
20260830181513 80 5 0.0 0.0 0.00 0.00 0.00 39 1013.4
20260830180007 82 0.0 0.0 0.00 0.00 0.00 38 1013.2
20260830174610 83 360 0.0 0.0 0.00 0.00 0.00 38 1013.0
20260830173054 84 360 0.0 0.0 0.00 0.00 0.00 37 1012.8